Regional Weather Roundup
Issued by NWS New Orleans/Baton Rouge, LA

Home | Current Version | Previous Version | Graphics & Text | Print | Product List | Glossary On
Versions: 1 2 3 4 5 6 7 8 9 10 11 12 13 14 15 16 17 18 19 20 21 22 23 24 25 26 27 28 29 30 31 32 33 34 35 36 37 38 39 40 41 42 43 44 45 46 47 48 49 50
466
ASUS44 KLIX 311005
RWRLIX
NEW ORLEANS REGIONAL WEATHER ROUNDUP
NATIONAL WEATHER SERVICE NEW ORLEANS LA
500 AM CDT FRI OCT 31 2014

NOTE: "FAIR" INDICATES FEW OR NO CLOUDS BELOW 12,000 FEET WITH NO
      SIGNIFICANT WEATHER AND/OR OBSTRUCTIONS TO VISIBILITY.
      SKY/WX - SKY CONDITION AND SIGNIFICANT WEATHER.
      TMP - AIR TEMPERATURE.     DP    - DEWPOINT TEMPERATURE.
      RH  - RELATIVE HUMIDITY.   PRES  - PRESSURE.
      HI  - HEAT INDEX.          WCI   - WIND CHILL INDEX.

*  THESE STATIONS ARE NOT NWS OR FAA STATIONS AND ARE NOT UNDER
   NWS QUALITY CONTROL.

LAZ038-040-048-061>063-065>067-069-311100-
SOUTHEAST LOUISIANA

CITY           SKY/WX    TMP DP  RH WIND       PRES   REMARKS
N.O. AUDUBON     N/A     56  55  99 MISG        N/A
N.O. INTL ARPT CLEAR     57  50  77 CALM      30.03F
N.O. LAKEFRONT CLEAR     65  49  56 N10       30.03F
N.O. DOWNTOWN*   N/A     63  46  55 CALM      30.04S
SLIDELL        CLEAR     45  41  86 CALM      30.02F
BATON ROUGE    CLEAR     48  46  93 CALM      30.04S
BOOTHVILLE     CLEAR     65  50  58 N7        30.02S
BELLE CHASSE   CLEAR     50  45  83 CALM      30.03S
BOGALUSA*        N/A     43  40  90 CALM      30.05S
NEW ROADS*       N/A     47  46  95 CALM      30.05S
GONZALES*        N/A     48  48 100 CALM      30.04S
HAMMOND*       CLEAR     46  43  87 CALM      30.05S
HOUMA*         CLEAR     53  48  82 CALM      30.04S
PORT FOURCHON* SUNNY     63  54  72 N7        30.06S

$$

MSZ070-080>082-311100-
SOUTHERN MISSISSIPPI

CITY           SKY/WX    TMP DP  RH WIND       PRES   REMARKS
MCCOMB         CLEAR     45  42  89 CALM      30.03F
GULFPORT       CLEAR     47  43  86 CALM      30.01F
BILOXI         CLEAR     54  43  66 N5        30.01S
PASCAGOULA     CLEAR     41  40  96 CALM      30.01F

$$

COASTAL OBSERVATIONS
LAKE AND NEARSHORE STATIONS

STATION/POSITION TIME  TEMP    WIND        PRES    WAVE
                       AIR SEA DIR/SP/G            HT/PER
                 (UTC) (F)     (DEG/KT/KT) (MB)    (FT/S)
PASCAGOULA       1000   51     350/  6/  6 1015.7
WAVELAND YACHT   1000   54     300/  2/  3 1015.7
GRAND ISLE       1000   67 73  350/  9/ 12 1017.1
SOUTHWEST PASS   1000   69 77              1016.5
NEW CANAL        1000   67 69  360/  8/  9 1017.2
SHELL BEACH      1000   65 67  350/ 10/ 12 1016.5

OFFSHORE STATIONS

STATION/POSITION TIME  TEMP    WIND        PRES    WAVE
                       AIR SEA DIR/SP/G            HT/PER
                 (UTC) (F)     (DEG/KT/KT) (MB)    (FT/S)
64 S DAUPHIN ISL 0907   69 77  360/ 16/ 23 1015.8    3/ 5

$$




USA.gov is the U.S. government's official web portal to all federal, state and local government web resources and services.